Regional Weather Roundup
Issued by NWS

Home | Current Version | Previous Version | Text Only | Print | Product List | Glossary On
Versions: 1 2 3 4 5 6 7 8 9 10 11 12 13 14 15 16 17 18 19 20 21 22 23 24 25 26 27 28 29 30 31 32 33 34 35 36 37 38 39 40 41 42 43 44 45 46 47 48 49 50
000
ASUS45 KBOU 131010
RWRCO

WEATHER ROUNDUP FOR COLORADO
NATIONAL WEATHER SERVICE DENVER/BOULDER CO
300 AM MST WED DEC 13 2017

NOTE: "FAIR" INDICATES FEW OR NO CLOUDS BELOW 12000 FEET WITH NO
SIGNIFICANT WEATHER AND/OR OBSTRUCTIONS TO VISIBILITY.

COZ001>005-013-030-031-131100-
...NORTHWEST COLORADO...

CITY           SKY/WX    TMP DP  RH WIND       PRES   REMARKS
CRAIG          FAIR       8   3  80 SE3       30.28R
HAYDEN         FAIR      24  13  62 E10       30.28S WCI  14
MEEKER         FAIR      15   8  73 NE6       30.27F WCI   6
RABBIT EARS PA FAIR      27   9  46 W9G16     30.31S WCI  17
STEAMBOAT SPGS FAIR      16  12  82 CALM      30.28R
WALDEN         FAIR      19   7  58 E5        30.26R WCI  13
$$

COZ006>008-011-131100-
...WEST CENTRAL VALLEYS...

CITY           SKY/WX    TMP DP  RH WIND       PRES   REMARKS
GRAND JUNCTION FAIR      24  10  55 E6        30.28F WCI  17
MONTROSE       FAIR      20   9  62 S8        30.32S WCI  10
EAGLE          FAIR      13   8  81 CALM      30.35F
RIFLE          FAIR      20  10  65 E3        30.30F
DELTA          FAIR      22   8  54 CALM      30.31S
NUCLA          FAIR      23   7  50 E8        30.32S WCI  14
$$

COZ017>023-064>068-131100-
...SOUTHWEST COLORADO...

CITY           SKY/WX    TMP DP  RH WIND       PRES   REMARKS
DURANGO        FAIR      12   0  58 E5        30.26S WCI   4
CORTEZ         FAIR      12   2  64 NE6       30.28R WCI   3
PAGOSA SPRINGS FAIR      19   3  49 CALM      30.27S
TELLURIDE      FAIR      30   7  37 SE5       30.34F WCI  25
WOLF CREEK PAS FAIR      28   0  29 NW7       30.43F WCI  21
$$

COZ009-010-012-014-032>034-037-058>063-131100-
...CENTRAL COLORADO...

CITY           SKY/WX    TMP DP  RH WIND       PRES   REMARKS
ASPEN          FAIR      22  10  60 CALM      30.29F
BUENA VISTA    FAIR      22   8  54 NE5       30.25F WCI  16
COPPER MTN     NOT AVBL
BERTHOUD PASS  FAIR      21  10  63 NW47G56   30.24F WCI  -1
COTTONWOOD PAS FAIR      41  -2  16 W13G20    30.28F
GUNNISON       FAIR       8   3  80 CALM      30.37S
KREMMLING      FAIR       9   3  78 CALM      30.32F
LEADVILLE      FAIR      24   2  38 NE10      30.29F WCI  14
MONARCH PASS   FAIR      27   0  31 W14G21    30.47F WCI  15
SALIDA         FAIR      29  10  46 SW5       30.32F WCI  24
SUNLIGHT       FAIR      30   7  37 W9        30.39F WCI  22
WILKERSON PASS FAIR      32 -15  12 NW12G25   30.32R WCI  23
$$

COZ069>075-131100-
...SAN LUIS VALLEY/SANGRE DE CRISTO MOUNTAINS...

CITY           SKY/WX    TMP DP  RH WIND       PRES   REMARKS
ALAMOSA        FAIR       5  -3  69 NE3       30.27F
DEL NORTE      FAIR      27   3  36 NW9       30.28S WCI  18
LA VETA PASS   FAIR      30   5  34 SW28G39     N/A  WCI  16
SAGUACHE       FAIR      30   9  40 NW20      30.27F WCI  18
$$

COZ035-036-038>040-131100-
...NORTHERN COLORADO FRONT RANGE...

CITY           SKY/WX    TMP DP  RH WIND       PRES   REMARKS
DENVER INTL AP MOCLDY    40   5  23 W8        30.05S
DMNS CITY PARK NOT AVBL
AURORA         MOCLDY    41   5  22 S8        30.07S
FRONT RANGE AP FAIR      46   6  19 SW9       30.06S
ERIE MUNI ARPT FAIR      38   5  25 CALM      30.09S
BOULDER MUN AP FAIR      54   3  13 CALM      30.04R
CENTENNIAL     FAIR      40   7  25 S7        30.07S
BROOMFIELD     FAIR      55   1  11 W13       30.06R
FORT COLLINS   FAIR      44   7  21 N9        30.05R
LONGMONT       FAIR      39  11  31 CALM      30.06S
$$

COZ041-046-047-076>085-087-088-131100-
...PIKES PEAK/PALMER DIVIDE AND SOUTHERN FOOTHILLS...

CITY           SKY/WX    TMP DP  RH WIND       PRES   REMARKS
COLO. SPRINGS  FAIR      45   5  19 N13       30.10F
A. F. ACADEMY  FAIR      29   2  31 N6        30.11S WCI  23
SCHRIEVER AFB  FAIR      49   0  13 NW15      30.09F
CHEYENNE MTN   FAIR      49   2  14 SW6       30.06F
ELLICOTT         N/A    N/A N/A N/A N12       30.07F
FALCON         FAIR      38  -1  19 W12       30.12F
FORT CARSON    FAIR      40   6  23 NW10      30.07S
LIMON          FAIR      29   8  41 W6        30.05F WCI  23
MONUMENT HILL  FAIR      34   3  27 SW10      30.13F WCI  26
CANON CITY     FAIR      45  12  26 W9        30.11F
WALSENBURG     FAIR      48  10  21 SW12G24   30.12S
TRINIDAD       FAIR      35  11  36 W12       30.09F WCI  27
$$

COZ042>045-048>051-090-091-131100-
...NORTHEAST COLORADO...

CITY           SKY/WX    TMP DP  RH WIND       PRES   REMARKS
GREELEY ARPT   FAIR      25  15  66 S3        30.05R
AKRON          FAIR      37   8  30 MISG      30.04R
BURLINGTON     FAIR      35  13  40 NW14      30.01S WCI  26
WRAY           FAIR      36  10  35 W10       30.01R
YUMA           FAIR      32  10  40 W12       30.02R WCI  23
STERLING       FAIR      46  12  25 N16G22    30.03R
HOLYOKE        FAIR      50  10  20 NW15G22   29.99R
FORT MORGAN    FAIR      46   3  17 N17       30.06R
$$

COZ086-089-092>099-131100-
...SOUTHEAST COLORADO...

CITY           SKY/WX    TMP DP  RH WIND       PRES   REMARKS
PUEBLO         FAIR      25  10  53 CALM      30.06S
LA JUNTA       FAIR      34  14  43 SW9       30.03F WCI  27
LAMAR          FAIR      28  10  46 W5        30.01R WCI  23
SPRINGFIELD      N/A     44  13  28 W15       30.00F
$$



USA.gov is the U.S. government's official web portal to all federal, state and local government web resources and services.